Location: Observatoire
(46.1952°N, 5.3391°E)
Time: 21:57:20
(UTC+01:00)

Tiros 1 despin weight - Pass Details

Date: 22 February 2026
Orbit: 556 x 593 km, 48.2° (Epoch: 3 March)

Event Time Altitude Azimuth Distance (km) Brightness Sun altitude
Rises 19:57:49 0° 285° (WNW) 2,734 ? -18.5°
Reaches altitude 10° 20:00:21 10° 272° (W) 1,836 ? -19.0°
Maximum altitude 20:03:46 24° 217° (SW) 1,156 ? -19.6°
Enters shadow 20:06:21 14° 170° (S) 1,581 ? -20.0°
Drops below altitude 10° 20:07:11 10° 162° (SSE) 1,834 - -20.1°
Sets 20:09:43 0° 149° (SSE) 2,730 - -20.6°
